Time,TemperatureF,DewpointF,PressureIn,WindDirection,WindDirectionDegrees,WindSpeedMPH,WindSpeedGustMPH,Humidity,HourlyPrecipIn,Conditions,Clouds,dailyrainin,SoftwareType,DateUTC
2013-02-13 00:00:00,29.7,25.2,29.98,East,82,0.0,0.0,83,0.00,,FEW200,0.00,VWS V14.01,2013-02-13 05:00:00,
2013-02-13 00:05:00,29.7,25.5,29.98,East,82,0.0,1.0,84,0.00,,BKN220,0.00,VWS V14.01,2013-02-13 05:05:00,
2013-02-13 00:10:00,29.7,25.5,29.98,East,82,0.0,1.0,84,0.00,,BKN220,0.00,VWS V14.01,2013-02-13 05:10:00,
2013-02-13 00:15:00,29.6,25.1,29.98,East,96,1.0,1.0,83,0.00,,BKN220,0.00,VWS V14.01,2013-02-13 05:15:00,
2013-02-13 00:20:00,29.4,24.9,29.98,ESE,115,0.0,0.0,83,0.00,,BKN220,0.00,VWS V14.01,2013-02-13 05:20:00,
2013-02-13 00:25:00,29.3,25.1,29.98,ESE,114,0.0,0.0,84,0.00,,BKN220,0.00,VWS V14.01,2013-02-13 05:25:00,
2013-02-13 00:30:00,29.1,24.9,29.98,ESE,114,0.0,1.0,84,0.00,,BKN220,0.00,VWS V14.01,2013-02-13 05:30:00,
2013-02-13 00:35:00,29.0,25.1,29.98,SE,145,0.0,0.0,85,0.00,,BKN220,0.00,VWS V14.01,2013-02-13 05:35:00,
2013-02-13 00:40:00,28.8,24.6,29.98,SE,145,0.0,0.0,84,0.00,,BKN220,0.00,VWS V14.01,2013-02-13 05:40:00,
2013-02-13 00:45:00,28.5,24.6,29.98,SE,145,0.0,1.0,85,0.00,,BKN220,0.00,VWS V14.01,2013-02-13 05:45:00,
2013-02-13 00:50:00,28.4,24.8,29.97,SE,145,0.0,0.0,86,0.00,,BKN220,0.00,VWS V14.01,2013-02-13 05:50:00,
2013-02-13 00:55:00,28.5,24.9,29.97,SE,143,0.0,1.0,86,0.00,,BKN220,0.00,VWS V14.01,2013-02-13 05:55:00,
2013-02-13 01:00:00,28.5,24.6,29.97,SE,144,0.0,0.0,85,0.00,,BKN220,0.00,VWS V14.01,2013-02-13 06:00:00,
2013-02-13 01:05:00,28.5,24.6,29.97,SE,144,0.0,0.0,85,0.00,,SCT250,0.00,VWS V14.01,2013-02-13 06:05:00,
2013-02-13 01:10:00,28.3,24.7,29.96,North,11,2.0,2.0,86,0.00,,SCT250,0.00,VWS V14.01,2013-02-13 06:10:00,
2013-02-13 01:15:00,28.2,24.6,29.95,North,352,2.0,3.0,86,0.00,,SCT250,0.00,VWS V14.01,2013-02-13 06:15:00,
2013-02-13 01:20:00,28.0,24.6,29.95,NW,323,2.0,2.0,87,0.00,,SCT250,0.00,VWS V14.01,2013-02-13 06:20:00,
2013-02-13 01:25:00,28.0,24.6,29.95,NNW,338,0.0,1.0,87,0.00,,SCT250,0.00,VWS V14.01,2013-02-13 06:25:00,
2013-02-13 01:30:00,27.8,24.2,29.95,NNW,338,0.0,0.0,86,0.00,,SCT250,0.00,VWS V14.01,2013-02-13 06:30:00,
2013-02-13 01:35:00,27.5,24.1,29.95,NNW,338,0.0,1.0,87,0.00,,SCT250,0.00,VWS V14.01,2013-02-13 06:35:00,
2013-02-13 01:40:00,27.4,24.3,29.95,NNW,337,0.0,0.0,88,0.00,,SCT250,0.00,VWS V14.01,2013-02-13 06:40:00,
2013-02-13 01:45:00,27.4,24.6,29.95,NNW,337,0.0,1.0,89,0.00,,SCT250,0.00,VWS V14.01,2013-02-13 06:45:00,
2013-02-13 01:50:00,27.5,24.7,29.95,NNW,338,0.0,0.0,89,0.00,,SCT250,0.00,VWS V14.01,2013-02-13 06:50:00,
2013-02-13 01:55:00,27.4,24.6,29.94,NNW,338,0.0,0.0,89,0.00,,SCT250,0.00,VWS V14.01,2013-02-13 06:55:00,
2013-02-13 02:00:00,27.6,24.5,29.95,NNW,338,0.0,1.0,88,0.00,,SCT250,0.00,VWS V14.01,2013-02-13 07:00:00,
2013-02-13 02:05:00,27.8,25.0,29.95,WNW,291,1.0,1.0,89,0.00,,FEW120,0.00,VWS V14.01,2013-02-13 07:05:00,
2013-02-13 02:10:00,28.4,25.0,29.95,West,278,0.0,1.0,87,0.00,,FEW120,0.00,VWS V14.01,2013-02-13 07:10:00,
2013-02-13 02:15:00,28.9,26.1,29.95,WSW,253,0.0,0.0,89,0.00,,FEW120,0.00,VWS V14.01,2013-02-13 07:15:00,
2013-02-13 02:20:00,28.9,25.8,29.95,WSW,253,0.0,0.0,88,0.00,,FEW120,0.00,VWS V14.01,2013-02-13 07:20:00,
2013-02-13 02:25:00,28.7,25.3,29.95,West,276,1.0,1.0,87,0.00,,FEW120,0.00,VWS V14.01,2013-02-13 07:25:00,
2013-02-13 02:30:00,28.2,24.6,29.95,NW,307,0.0,1.0,86,0.00,,FEW120,0.00,VWS V14.01,2013-02-13 07:30:00,
2013-02-13 02:35:00,28.2,24.6,29.95,NNW,328,2.0,2.0,86,0.00,,FEW120,0.00,VWS V14.01,2013-02-13 07:35:00,
2013-02-13 02:40:00,28.4,24.8,29.95,NNW,329,2.0,3.0,86,0.00,,FEW120,0.00,VWS V14.01,2013-02-13 07:40:00,
2013-02-13 02:45:00,28.6,25.0,29.94,NW,323,0.0,2.0,86,0.00,,FEW120,0.00,VWS V14.01,2013-02-13 07:45:00,
2013-02-13 02:50:00,29.0,25.4,29.94,NNW,333,2.0,2.0,86,0.00,,FEW120,0.00,VWS V14.01,2013-02-13 07:50:00,
2013-02-13 02:55:00,29.2,25.3,29.94,NNW,330,1.0,1.0,85,0.00,,FEW120,0.00,VWS V14.01,2013-02-13 07:55:00,
2013-02-13 03:00:00,29.4,25.5,29.94,NNW,328,1.0,2.0,85,0.00,,FEW120,0.00,VWS V14.01,2013-02-13 08:00:00,
2013-02-13 03:13:00,30.0,25.8,29.94,NNW,341,2.0,2.0,84,0.00,,SCT120,0.00,VWS V14.01,2013-02-13 08:13:00,
2013-02-13 03:18:00,30.0,25.8,29.95,SW,231,1.0,1.0,84,0.00,,SCT120,0.00,VWS V14.01,2013-02-13 08:18:00,
2013-02-13 03:23:00,30.0,25.8,29.95,WSW,257,1.0,1.0,84,0.00,,SCT120,0.00,VWS V14.01,2013-02-13 08:23:00,
2013-02-13 03:28:00,29.9,25.7,29.95,WNW,295,1.0,2.0,84,0.00,,SCT120,0.00,VWS V14.01,2013-02-13 08:28:00,
2013-02-13 03:33:00,29.8,25.9,29.95,WNW,284,0.0,1.0,85,0.00,,SCT120,0.00,VWS V14.01,2013-02-13 08:33:00,
2013-02-13 03:38:00,29.8,25.9,29.95,NW,306,1.0,2.0,85,0.00,,SCT120,0.00,VWS V14.01,2013-02-13 08:38:00,
2013-02-13 03:43:00,29.8,25.9,29.95,NW,308,1.0,2.0,85,0.00,,SCT120,0.00,VWS V14.01,2013-02-13 08:43:00,
2013-02-13 03:48:00,29.7,25.8,29.95,WNW,300,1.0,2.0,85,0.00,,SCT120,0.00,VWS V14.01,2013-02-13 08:48:00,
2013-02-13 03:53:00,29.6,25.6,29.94,NW,322,2.0,3.0,85,0.00,,SCT120,0.00,VWS V14.01,2013-02-13 08:53:00,
2013-02-13 03:58:00,29.5,25.6,29.94,NW,323,1.0,2.0,85,0.00,,SCT120,0.00,VWS V14.01,2013-02-13 08:58:00,
2013-02-13 04:03:00,29.3,25.6,29.94,WNW,299,0.0,1.0,86,0.00,,BKN120,0.00,VWS V14.01,2013-02-13 09:03:00,
2013-02-13 04:08:00,29.3,25.6,29.93,NNW,339,2.0,3.0,86,0.00,,BKN120,0.00,VWS V14.01,2013-02-13 09:08:00,
2013-02-13 04:13:00,29.2,25.5,29.93,NNW,334,2.0,3.0,86,0.00,,BKN120,0.00,VWS V14.01,2013-02-13 09:13:00,
2013-02-13 04:18:00,29.0,25.4,29.93,North,349,3.0,4.0,86,0.00,,BKN120,0.00,VWS V14.01,2013-02-13 09:18:00,
2013-02-13 04:23:00,28.9,25.2,29.93,NW,326,3.0,3.0,86,0.00,,BKN120,0.00,VWS V14.01,2013-02-13 09:23:00,
2013-02-13 04:28:00,28.9,25.5,29.93,NW,321,3.0,3.0,87,0.00,,BKN120,0.00,VWS V14.01,2013-02-13 09:28:00,
2013-02-13 04:33:00,28.9,25.5,29.93,NNW,332,3.0,4.0,87,0.00,,BKN120,0.00,VWS V14.01,2013-02-13 09:33:00,
2013-02-13 04:38:00,29.0,25.6,29.92,NNW,330,1.0,4.0,87,0.00,,BKN120,0.00,VWS V14.01,2013-02-13 09:38:00,
2013-02-13 04:43:00,28.9,25.5,29.92,NNW,333,1.0,2.0,87,0.00,,BKN120,0.00,VWS V14.01,2013-02-13 09:43:00,
2013-02-13 04:48:00,28.9,25.5,29.92,NW,321,2.0,3.0,87,0.00,,BKN120,0.00,VWS V14.01,2013-02-13 09:48:00,
2013-02-13 04:53:00,28.8,25.4,29.93,NW,316,0.0,2.0,87,0.00,,BKN120,0.00,VWS V14.01,2013-02-13 09:53:00,
2013-02-13 04:58:00,28.8,25.4,29.93,WNW,302,0.0,0.0,87,0.00,,BKN120,0.00,VWS V14.01,2013-02-13 09:58:00,
2013-02-13 05:03:00,28.9,25.5,29.93,NW,315,0.0,2.0,87,0.00,,BKN200,0.00,VWS V14.01,2013-02-13 10:03:00,
2013-02-13 05:08:00,28.8,25.4,29.93,NNW,341,0.0,1.0,87,0.00,,BKN200,0.00,VWS V14.01,2013-02-13 10:08:00,
2013-02-13 05:13:00,28.6,25.5,29.93,NW,321,1.0,1.0,88,0.00,,BKN200,0.00,VWS V14.01,2013-02-13 10:13:00,
2013-02-13 05:18:00,28.4,25.3,29.92,NW,323,0.0,0.0,88,0.00,,BKN200,0.00,VWS V14.01,2013-02-13 10:18:00,
2013-02-13 05:23:00,28.2,25.1,29.92,NW,323,0.0,0.0,88,0.00,,BKN200,0.00,VWS V14.01,2013-02-13 10:23:00,
2013-02-13 05:28:00,28.1,25.0,29.92,NW,323,0.0,0.0,88,0.00,,BKN200,0.00,VWS V14.01,2013-02-13 10:28:00,
2013-02-13 05:33:00,28.0,25.2,29.92,NW,323,0.0,1.0,89,0.00,,BKN200,0.00,VWS V14.01,2013-02-13 10:33:00,
2013-02-13 05:38:00,27.9,25.1,29.92,NNW,335,1.0,1.0,89,0.00,,BKN200,0.00,VWS V14.01,2013-02-13 10:38:00,
2013-02-13 05:43:00,27.9,25.1,29.92,NNW,341,1.0,2.0,89,0.00,,BKN200,0.00,VWS V14.01,2013-02-13 10:43:00,
2013-02-13 05:48:00,27.8,25.0,29.91,NW,326,1.0,2.0,89,0.00,,BKN200,0.00,VWS V14.01,2013-02-13 10:48:00,
2013-02-13 05:53:00,27.9,25.1,29.91,North,349,1.0,3.0,89,0.00,,BKN200,0.00,VWS V14.01,2013-02-13 10:53:00,
2013-02-13 05:58:00,27.8,25.0,29.90,North,1,3.0,3.0,89,0.00,,BKN200,0.00,VWS V14.01,2013-02-13 10:58:00,
2013-02-13 06:03:00,28.0,25.2,29.90,NNW,340,1.0,2.0,89,0.00,,OVC120,0.00,VWS V14.01,2013-02-13 11:03:00,
2013-02-13 06:08:00,28.1,25.3,29.90,NNW,345,2.0,3.0,89,0.00,,OVC120,0.00,VWS V14.01,2013-02-13 11:08:00,
2013-02-13 06:13:00,28.2,25.4,29.90,North,349,3.0,4.0,89,0.00,,OVC120,0.00,VWS V14.01,2013-02-13 11:13:00,
2013-02-13 06:18:00,28.4,25.6,29.89,NNW,346,2.0,4.0,89,0.00,,OVC120,0.00,VWS V14.01,2013-02-13 11:18:00,
2013-02-13 06:23:00,28.5,25.7,29.89,NNW,334,3.0,4.0,89,0.00,,OVC120,0.00,VWS V14.01,2013-02-13 11:23:00,
2013-02-13 06:28:00,28.6,25.8,29.89,NNW,334,1.0,4.0,89,0.00,,OVC120,0.00,VWS V14.01,2013-02-13 11:28:00,
2013-02-13 06:33:00,28.7,25.9,29.89,NNE,32,0.0,2.0,89,0.00,,OVC120,0.00,VWS V14.01,2013-02-13 11:33:00,
2013-02-13 06:38:00,28.8,26.0,29.88,NW,326,2.0,3.0,89,0.00,,OVC120,0.00,VWS V14.01,2013-02-13 11:38:00,
2013-02-13 06:43:00,28.8,26.0,29.88,North,6,5.0,5.0,89,0.00,,OVC120,0.00,VWS V14.01,2013-02-13 11:43:00,
2013-02-13 06:48:00,28.9,25.8,29.88,NNE,24,2.0,4.0,88,0.00,,OVC120,0.00,VWS V14.01,2013-02-13 11:48:00,
2013-02-13 06:53:00,28.9,25.8,29.88,NE,51,1.0,6.0,88,0.00,,OVC120,0.00,VWS V14.01,2013-02-13 11:53:00,
2013-02-13 06:58:00,28.9,25.8,29.88,NNE,25,4.0,4.0,88,0.00,,OVC120,0.00,VWS V14.01,2013-02-13 11:58:00,
2013-02-13 07:03:00,28.9,25.8,29.87,North,354,3.0,5.0,88,0.00,,OVC120,0.00,VWS V14.01,2013-02-13 12:03:00,
2013-02-13 07:08:00,29.0,25.9,29.87,NNE,25,1.0,3.0,88,0.00,,OVC120,0.00,VWS V14.01,2013-02-13 12:08:00,
2013-02-13 07:13:00,29.0,25.9,29.86,NE,46,1.0,2.0,88,0.00,,OVC120,0.00,VWS V14.01,2013-02-13 12:13:00,
2013-02-13 07:18:00,29.0,25.9,29.85,NNE,25,5.0,7.0,88,0.00,,OVC120,0.00,VWS V14.01,2013-02-13 12:18:00,
2013-02-13 07:23:00,29.0,25.9,29.85,NNW,336,1.0,3.0,88,0.00,,OVC120,0.00,VWS V14.01,2013-02-13 12:23:00,
2013-02-13 07:28:00,29.0,25.9,29.85,NNE,23,1.0,4.0,88,0.00,,OVC120,0.00,VWS V14.01,2013-02-13 12:28:00,
2013-02-13 07:33:00,29.0,25.9,29.85,NNE,19,4.0,4.0,88,0.00,,OVC120,0.00,VWS V14.01,2013-02-13 12:33:00,
2013-02-13 07:38:00,29.1,26.0,29.85,North,9,3.0,4.0,88,0.00,,OVC120,0.00,VWS V14.01,2013-02-13 12:38:00,
2013-02-13 07:43:00,29.2,26.1,29.85,NE,35,3.0,3.0,88,0.00,,OVC120,0.00,VWS V14.01,2013-02-13 12:43:00,
2013-02-13 07:48:00,29.3,26.2,29.85,NNW,339,3.0,4.0,88,0.00,,OVC120,0.00,VWS V14.01,2013-02-13 12:48:00,
2013-02-13 07:53:00,29.4,26.3,29.85,NNW,348,2.0,4.0,88,0.00,,OVC120,0.00,VWS V14.01,2013-02-13 12:53:00,
2013-02-13 07:58:00,29.5,26.4,29.85,North,355,0.0,1.0,88,0.00,,OVC120,0.00,VWS V14.01,2013-02-13 12:58:00,
2013-02-13 08:03:00,29.6,26.5,29.85,NNE,19,4.0,5.0,88,0.00,,,0.00,VWS V14.01,2013-02-13 13:03:00,
2013-02-13 08:08:00,29.7,26.6,29.85,NE,34,3.0,5.0,88,0.00,,,0.00,VWS V14.01,2013-02-13 13:08:00,
2013-02-13 08:13:00,29.7,26.3,29.84,North,6,3.0,6.0,87,0.00,,,0.00,VWS V14.01,2013-02-13 13:13:00,
2013-02-13 08:18:00,29.8,26.4,29.85,NNE,32,2.0,5.0,87,0.00,,,0.00,VWS V14.01,2013-02-13 13:18:00,
2013-02-13 08:23:00,29.9,26.5,29.85,NNE,32,2.0,2.0,87,0.00,,,0.00,VWS V14.01,2013-02-13 13:23:00,
2013-02-13 08:28:00,30.0,26.6,29.85,North,352,0.0,3.0,87,0.00,,,0.00,VWS V14.01,2013-02-13 13:28:00,
2013-02-13 08:33:00,30.0,26.6,29.86,NNE,15,2.0,2.0,87,0.00,,,0.00,VWS V14.01,2013-02-13 13:33:00,
2013-02-13 08:38:00,30.2,26.8,29.87,NNE,15,0.0,0.0,87,0.00,,,0.00,VWS V14.01,2013-02-13 13:38:00,
2013-02-13 08:43:00,30.2,26.8,29.86,NNE,32,0.0,0.0,87,0.00,,,0.00,VWS V14.01,2013-02-13 13:43:00,
2013-02-13 08:48:00,30.4,26.7,29.86,NNE,15,1.0,2.0,86,0.00,,,0.00,VWS V14.01,2013-02-13 13:48:00,
2013-02-13 08:53:00,30.4,26.7,29.86,NNE,23,0.0,0.0,86,0.00,,,0.00,VWS V14.01,2013-02-13 13:53:00,
2013-02-13 08:58:00,30.5,26.8,29.86,NNE,24,3.0,3.0,86,0.00,,,0.00,VWS V14.01,2013-02-13 13:58:00,
2013-02-13 09:03:00,30.5,26.8,29.86,NE,37,0.0,1.0,86,0.00,,,0.00,VWS V14.01,2013-02-13 14:03:00,
2013-02-13 09:08:00,30.6,26.9,29.87,NNE,17,0.0,1.0,86,0.00,,,0.00,VWS V14.01,2013-02-13 14:08:00,
2013-02-13 09:13:00,30.7,27.3,29.86,NE,34,0.0,1.0,87,0.00,,,0.00,VWS V14.01,2013-02-13 14:13:00,
2013-02-13 09:18:00,30.8,27.1,29.86,NNE,15,1.0,1.0,86,0.00,,,0.00,VWS V14.01,2013-02-13 14:18:00,
2013-02-13 09:23:00,30.8,27.1,29.86,North,353,0.0,1.0,86,0.00,,,0.00,VWS V14.01,2013-02-13 14:23:00,
2013-02-13 09:28:00,30.9,27.2,29.86,NNE,27,1.0,2.0,86,0.00,,,0.00,VWS V14.01,2013-02-13 14:28:00,
2013-02-13 09:33:00,31.0,27.3,29.86,NW,325,0.0,0.0,86,0.00,,,0.00,VWS V14.01,2013-02-13 14:33:00,
2013-02-13 09:38:00,31.2,27.5,29.87,WNW,288,0.0,0.0,86,0.00,,,0.00,VWS V14.01,2013-02-13 14:38:00,
2013-02-13 09:43:00,31.2,27.5,29.87,NW,312,2.0,3.0,86,0.00,,,0.00,VWS V14.01,2013-02-13 14:43:00,
2013-02-13 09:48:00,31.3,27.6,29.87,NW,320,0.0,2.0,86,0.00,,,0.00,VWS V14.01,2013-02-13 14:48:00,
2013-02-13 09:53:00,31.4,27.4,29.88,NW,311,1.0,1.0,85,0.00,,,0.00,VWS V14.01,2013-02-13 14:53:00,
2013-02-13 09:58:00,31.6,27.6,29.88,NW,323,2.0,3.0,85,0.00,,,0.00,VWS V14.01,2013-02-13 14:58:00,
2013-02-13 10:03:00,31.6,27.6,29.87,NW,319,5.0,6.0,85,0.00,,,0.00,VWS V14.01,2013-02-13 15:03:00,
2013-02-13 10:08:00,31.6,27.9,29.87,NW,326,4.0,5.0,86,0.00,,,0.00,VWS V14.01,2013-02-13 15:08:00,
2013-02-13 10:13:00,31.6,27.6,29.87,NW,311,3.0,5.0,85,0.00,,,0.00,VWS V14.01,2013-02-13 15:13:00,
2013-02-13 10:18:00,31.6,27.6,29.88,NNW,328,4.0,5.0,85,0.00,,,0.00,VWS V14.01,2013-02-13 15:18:00,
2013-02-13 10:23:00,31.6,27.6,29.88,NW,315,3.0,4.0,85,0.00,,,0.00,VWS V14.01,2013-02-13 15:23:00,
2013-02-13 10:24:00,31.6,27.6,29.88,NNW,338,2.0,3.0,85,0.00,,,0.00,VWS V14.01,2013-02-13 15:24:00,
2013-02-13 10:25:00,31.6,27.6,29.88,WNW,292,2.0,2.0,85,0.00,,,0.00,VWS V14.01,2013-02-13 15:25:00,
2013-02-13 10:26:00,31.6,27.6,29.88,WNW,292,2.0,3.0,85,0.00,,,0.00,VWS V14.01,2013-02-13 15:26:00,
2013-02-13 10:27:00,31.6,27.6,29.88,NW,315,3.0,5.0,85,0.00,,,0.00,VWS V14.01,2013-02-13 15:27:00,
2013-02-13 10:28:00,31.6,27.6,29.88,NW,315,4.0,6.0,85,0.00,,,0.00,VWS V14.01,2013-02-13 15:28:00,
2013-02-13 10:29:00,31.6,27.6,29.88,WNW,292,4.0,6.0,85,0.00,,,0.00,VWS V14.01,2013-02-13 15:29:00,
2013-02-13 10:30:00,31.6,27.6,29.88,NW,315,4.0,6.0,85,0.00,,,0.00,VWS V14.01,2013-02-13 15:30:00,
2013-02-13 10:31:00,31.6,27.9,29.88,NW,315,2.0,3.0,86,0.00,,,0.00,VWS V14.01,2013-02-13 15:31:00,
2013-02-13 10:32:00,31.5,27.8,29.88,NW,315,4.0,6.0,86,0.00,,,0.00,VWS V14.01,2013-02-13 15:32:00,
2013-02-13 10:33:00,31.5,27.5,29.88,NW,315,2.0,3.0,85,0.00,,,0.00,VWS V14.01,2013-02-13 15:33:00,
2013-02-13 10:34:00,31.6,27.9,29.88,NW,315,1.0,2.0,86,0.00,,,0.00,VWS V14.01,2013-02-13 15:34:00,
2013-02-13 10:35:00,31.6,27.6,29.88,WNW,292,3.0,5.0,85,0.00,,,0.00,VWS V14.01,2013-02-13 15:35:00,
2013-02-13 10:36:00,31.6,27.6,29.89,NW,315,5.0,6.0,85,0.00,,,0.00,VWS V14.01,2013-02-13 15:36:00,
2013-02-13 10:37:00,31.5,27.5,29.89,WNW,292,3.0,5.0,85,0.00,,,0.00,VWS V14.01,2013-02-13 15:37:00,
2013-02-13 10:38:00,31.5,27.5,29.89,NW,315,4.0,5.0,85,0.00,,,0.00,VWS V14.01,2013-02-13 15:38:00,
2013-02-13 10:39:00,31.5,27.5,29.89,WNW,292,3.0,4.0,85,0.00,,,0.00,VWS V14.01,2013-02-13 15:39:00,
2013-02-13 10:40:00,31.5,27.5,29.89,NW,315,3.0,4.0,85,0.00,,,0.00,VWS V14.01,2013-02-13 15:40:00,
2013-02-13 10:41:00,31.5,27.5,29.89,WNW,292,3.0,4.0,85,0.00,,,0.00,VWS V14.01,2013-02-13 15:41:00,
2013-02-13 10:42:00,31.5,27.8,29.89,WNW,292,3.0,6.0,86,0.00,,,0.00,VWS V14.01,2013-02-13 15:42:00,
2013-02-13 10:43:00,31.5,27.5,29.89,WNW,292,4.0,5.0,85,0.00,,,0.00,VWS V14.01,2013-02-13 15:43:00,
2013-02-13 10:53:00,31.4,27.4,29.89,NW,315,3.0,6.0,85,0.00,,,0.00,VWS V14.01,2013-02-13 15:53:00,
2013-02-13 10:58:00,31.4,27.4,29.89,WNW,295,5.0,7.0,85,0.00,,,0.00,VWS V14.01,2013-02-13 15:58:00,
2013-02-13 11:03:00,31.5,27.5,29.89,NW,312,5.0,7.0,85,0.00,,,0.00,VWS V14.01,2013-02-13 16:03:00,
2013-02-13 11:08:00,31.5,27.5,29.89,NNW,335,4.0,5.0,85,0.00,,,0.00,VWS V14.01,2013-02-13 16:08:00,
2013-02-13 11:13:00,31.4,27.4,29.89,NW,304,3.0,6.0,85,0.00,,,0.00,VWS V14.01,2013-02-13 16:13:00,
2013-02-13 11:18:00,31.4,27.7,29.89,NW,311,2.0,3.0,86,0.00,,,0.00,VWS V14.01,2013-02-13 16:18:00,
2013-02-13 11:21:00,31.4,27.4,29.89,WNW,292,2.0,3.0,85,0.00,,,0.00,VWS V14.01,2013-02-13 16:21:00,
2013-02-13 11:22:00,31.4,27.4,29.89,NW,315,2.0,3.0,85,0.00,,,0.00,VWS V14.01,2013-02-13 16:22:00,
2013-02-13 11:23:00,31.4,27.4,29.89,NW,315,4.0,6.0,85,0.00,,,0.00,VWS V14.01,2013-02-13 16:23:00,
2013-02-13 11:24:00,31.4,27.4,29.88,NW,315,4.0,5.0,85,0.00,,,0.00,VWS V14.01,2013-02-13 16:24:00,
2013-02-13 11:25:00,31.4,27.4,29.88,NW,315,4.0,5.0,85,0.00,,,0.00,VWS V14.01,2013-02-13 16:25:00,
2013-02-13 11:26:00,31.4,27.4,29.88,NW,315,5.0,6.0,85,0.00,,,0.00,VWS V14.01,2013-02-13 16:26:00,
2013-02-13 11:27:00,31.3,27.3,29.88,NW,315,4.0,5.0,85,0.00,,,0.00,VWS V14.01,2013-02-13 16:27:00,
2013-02-13 11:28:00,31.3,27.3,29.88,NW,315,4.0,6.0,85,0.00,,,0.00,VWS V14.01,2013-02-13 16:28:00,
2013-02-13 11:29:00,31.3,27.3,29.88,NW,315,4.0,6.0,85,0.00,,,0.00,VWS V14.01,2013-02-13 16:29:00,
2013-02-13 11:30:00,31.3,27.3,29.88,WNW,301,5.0,5.0,85,0.00,,,0.00,VWS V14.01,2013-02-13 16:30:00,
2013-02-13 11:31:00,31.3,27.3,29.88,NW,325,4.0,6.0,85,0.00,,,0.00,VWS V14.01,2013-02-13 16:31:00,
2013-02-13 11:32:00,31.4,27.4,29.88,NW,321,4.0,7.0,85,0.00,,,0.00,VWS V14.01,2013-02-13 16:32:00,
2013-02-13 11:33:00,31.4,27.7,29.88,NW,326,3.0,4.0,86,0.00,,,0.00,VWS V14.01,2013-02-13 16:33:00,
2013-02-13 11:34:00,31.4,27.7,29.88,NNW,334,4.0,5.0,86,0.00,,,0.00,VWS V14.01,2013-02-13 16:34:00,
2013-02-13 11:35:00,31.4,27.7,29.88,NW,311,4.0,5.0,86,0.00,,,0.00,VWS V14.01,2013-02-13 16:35:00,
2013-02-13 11:36:00,31.4,27.7,29.87,NNW,339,5.0,6.0,86,0.00,,,0.00,VWS V14.01,2013-02-13 16:36:00,
2013-02-13 11:37:00,31.4,27.4,29.88,NNW,344,5.0,6.0,85,0.00,,,0.00,VWS V14.01,2013-02-13 16:37:00,
2013-02-13 11:38:00,31.4,27.4,29.88,NNW,333,5.0,7.0,85,0.00,,,0.00,VWS V14.01,2013-02-13 16:38:00,
2013-02-13 11:39:00,31.4,27.4,29.87,NNE,18,1.0,5.0,85,0.00,,,0.00,VWS V14.01,2013-02-13 16:39:00,
2013-02-13 11:40:00,31.4,27.7,29.87,NW,312,4.0,5.0,86,0.00,,,0.00,VWS V14.01,2013-02-13 16:40:00,
2013-02-13 11:41:00,31.4,27.7,29.87,NNW,333,3.0,5.0,86,0.00,,,0.00,VWS V14.01,2013-02-13 16:41:00,
2013-02-13 11:42:00,31.4,27.7,29.87,WNW,290,4.0,5.0,86,0.00,,,0.00,VWS V14.01,2013-02-13 16:42:00,
2013-02-13 11:43:00,31.4,27.4,29.87,NW,323,6.0,8.0,85,0.00,,,0.00,VWS V14.01,2013-02-13 16:43:00,
2013-02-13 11:44:00,31.4,27.4,29.87,NNW,332,5.0,6.0,85,0.00,,,0.00,VWS V14.01,2013-02-13 16:44:00,
2013-02-13 11:45:00,31.4,27.4,29.87,NW,325,4.0,6.0,85,0.00,,,0.00,VWS V14.01,2013-02-13 16:45:00,
2013-02-13 11:46:00,31.4,27.4,29.87,WNW,300,7.0,7.0,85,0.00,,,0.00,VWS V14.01,2013-02-13 16:46:00,
2013-02-13 11:47:00,31.4,27.4,29.87,NW,316,4.0,7.0,85,0.00,,,0.00,VWS V14.01,2013-02-13 16:47:00,
2013-02-13 11:48:00,31.4,27.7,29.87,NNW,340,2.0,5.0,86,0.00,,,0.00,VWS V14.01,2013-02-13 16:48:00,
2013-02-13 11:49:00,31.5,27.8,29.87,NNW,328,4.0,4.0,86,0.00,,,0.00,VWS V14.01,2013-02-13 16:49:00,
2013-02-13 11:50:00,31.5,27.8,29.87,NW,307,4.0,5.0,86,0.00,,,0.00,VWS V14.01,2013-02-13 16:50:00,
2013-02-13 11:51:00,31.5,27.8,29.86,NNW,329,6.0,6.0,86,0.00,,,0.00,VWS V14.01,2013-02-13 16:51:00,
2013-02-13 11:52:00,31.5,27.5,29.87,NNW,327,7.0,7.0,85,0.00,,,0.00,VWS V14.01,2013-02-13 16:52:00,
2013-02-13 11:53:00,31.5,27.5,29.86,North,353,6.0,8.0,85,0.00,,,0.00,VWS V14.01,2013-02-13 16:53:00,
2013-02-13 11:54:00,31.4,27.4,29.86,NNW,342,3.0,7.0,85,0.00,,,0.00,VWS V14.01,2013-02-13 16:54:00,
2013-02-13 11:55:00,31.4,27.4,29.86,NNW,328,1.0,6.0,85,0.00,,,0.00,VWS V14.01,2013-02-13 16:55:00,
2013-02-13 11:56:00,31.4,27.4,29.86,NNW,333,5.0,5.0,85,0.00,,,0.00,VWS V14.01,2013-02-13 16:56:00,
2013-02-13 11:57:00,31.4,27.4,29.86,NNW,341,6.0,6.0,85,0.00,,,0.00,VWS V14.01,2013-02-13 16:57:00,
2013-02-13 11:58:00,31.4,27.4,29.86,NNW,327,2.0,6.0,85,0.00,,,0.00,VWS V14.01,2013-02-13 16:58:00,
2013-02-13 11:59:00,31.4,27.4,29.86,North,359,2.0,4.0,85,0.00,,,0.00,VWS V14.01,2013-02-13 16:59:00,
2013-02-13 12:00:00,31.4,27.4,29.86,North,11,0.0,4.0,85,0.00,,,0.00,VWS V14.01,2013-02-13 17:00:00,
2013-02-13 12:01:00,31.4,27.4,29.86,NW,321,4.0,6.0,85,0.00,,,0.00,VWS V14.01,2013-02-13 17:01:00,
2013-02-13 12:02:00,31.4,27.4,29.86,NNW,329,2.0,6.0,85,0.00,,,0.00,VWS V14.01,2013-02-13 17:02:00,
2013-02-13 12:03:00,31.4,27.7,29.86,NNW,340,4.0,5.0,86,0.00,,,0.00,VWS V14.01,2013-02-13 17:03:00,
2013-02-13 12:04:00,31.4,27.4,29.86,WNW,302,3.0,6.0,85,0.00,,,0.00,VWS V14.01,2013-02-13 17:04:00,
2013-02-13 12:05:00,31.4,27.4,29.86,NW,311,4.0,6.0,85,0.00,,,0.00,VWS V14.01,2013-02-13 17:05:00,
2013-02-13 12:06:00,31.4,27.4,29.86,NW,311,2.0,4.0,85,0.00,,,0.00,VWS V14.01,2013-02-13 17:06:00,
2013-02-13 12:07:00,31.4,27.4,29.86,NW,316,4.0,4.0,85,0.00,,,0.00,VWS V14.01,2013-02-13 17:07:00,
2013-02-13 12:08:00,31.4,27.4,29.86,NW,325,3.0,4.0,85,0.00,,,0.00,VWS V14.01,2013-02-13 17:08:00,
2013-02-13 12:09:00,31.4,27.4,29.86,North,354,5.0,6.0,85,0.00,,,0.00,VWS V14.01,2013-02-13 17:09:00,
2013-02-13 12:10:00,31.4,27.4,29.86,NW,315,3.0,6.0,85,0.00,,,0.00,VWS V14.01,2013-02-13 17:10:00,
2013-02-13 12:11:00,31.3,27.6,29.86,NNW,329,3.0,5.0,86,0.00,,,0.00,VWS V14.01,2013-02-13 17:11:00,
2013-02-13 12:12:00,31.3,27.6,29.86,NNE,25,4.0,6.0,86,0.00,,,0.00,VWS V14.01,2013-02-13 17:12:00,
2013-02-13 12:14:00,31.4,27.7,29.86,NW,325,4.0,5.0,86,0.00,,,0.00,VWS V14.01,2013-02-13 17:14:00,
2013-02-13 12:15:00,31.4,27.7,29.86,NNW,332,2.0,5.0,86,0.00,,,0.00,VWS V14.01,2013-02-13 17:15:00,
2013-02-13 12:16:00,31.4,27.7,29.86,NNW,334,2.0,4.0,86,0.00,,,0.00,VWS V14.01,2013-02-13 17:16:00,
2013-02-13 12:17:00,31.4,28.0,29.86,NW,322,4.0,5.0,87,0.00,,,0.00,VWS V14.01,2013-02-13 17:17:00,
2013-02-13 12:18:00,31.3,27.9,29.86,NNW,333,6.0,8.0,87,0.00,,,0.00,VWS V14.01,2013-02-13 17:18:00,
2013-02-13 12:19:00,31.2,28.1,29.85,North,11,4.0,7.0,88,0.00,,,0.00,VWS V14.01,2013-02-13 17:19:00,
2013-02-13 12:20:00,31.1,28.0,29.85,NNW,328,1.0,7.0,88,0.00,,,0.00,VWS V14.01,2013-02-13 17:20:00,
2013-02-13 12:21:00,31.0,28.1,29.85,NW,325,3.0,5.0,89,0.00,,,0.00,VWS V14.01,2013-02-13 17:21:00,
2013-02-13 12:22:00,30.9,28.0,29.85,NW,315,1.0,6.0,89,0.00,,,0.00,VWS V14.01,2013-02-13 17:22:00,
2013-02-13 12:23:00,30.8,28.2,29.85,WNW,293,4.0,5.0,90,0.00,,,0.00,VWS V14.01,2013-02-13 17:23:00,
2013-02-13 12:24:00,30.6,28.0,29.85,NW,323,5.0,7.0,90,0.00,,,0.00,VWS V14.01,2013-02-13 17:24:00,
2013-02-13 12:25:00,30.6,28.0,29.85,NW,325,4.0,7.0,90,0.00,,,0.00,VWS V14.01,2013-02-13 17:25:00,
2013-02-13 12:26:00,30.5,28.2,29.85,WNW,288,4.0,8.0,91,0.00,,,0.00,VWS V14.01,2013-02-13 17:26:00,
2013-02-13 12:27:00,30.4,28.1,29.85,WNW,282,4.0,8.0,91,0.00,,,0.00,VWS V14.01,2013-02-13 17:27:00,
2013-02-13 12:28:00,30.4,28.1,29.85,NW,307,4.0,6.0,91,0.00,,,0.00,VWS V14.01,2013-02-13 17:28:00,
2013-02-13 12:29:00,30.3,28.3,29.85,NE,37,1.0,4.0,92,0.00,,,0.00,VWS V14.01,2013-02-13 17:29:00,
2013-02-13 12:30:00,30.2,28.2,29.85,NW,326,6.0,6.0,92,0.00,,,0.00,VWS V14.01,2013-02-13 17:30:00,
2013-02-13 12:31:00,30.2,28.2,29.85,NNW,330,1.0,6.0,92,0.00,,,0.00,VWS V14.01,2013-02-13 17:31:00,
2013-02-13 12:32:00,30.2,28.2,29.85,NW,323,4.0,6.0,92,0.00,,,0.00,VWS V14.01,2013-02-13 17:32:00,
2013-02-13 12:33:00,30.1,28.3,29.85,NW,314,4.0,5.0,93,0.00,,,0.00,VWS V14.01,2013-02-13 17:33:00,
2013-02-13 12:34:00,30.1,28.3,29.85,WNW,300,2.0,4.0,93,0.00,,,0.00,VWS V14.01,2013-02-13 17:34:00,
2013-02-13 12:35:00,30.1,28.3,29.85,NNW,329,1.0,3.0,93,0.00,,,0.00,VWS V14.01,2013-02-13 17:35:00,
2013-02-13 12:36:00,30.0,28.2,29.85,NW,311,5.0,5.0,93,0.00,,,0.00,VWS V14.01,2013-02-13 17:36:00,
2013-02-13 12:37:00,30.0,28.2,29.85,NW,316,5.0,6.0,93,0.00,,,0.00,VWS V14.01,2013-02-13 17:37:00,
2013-02-13 12:38:00,30.0,28.2,29.85,NW,321,2.0,5.0,93,0.00,,,0.00,VWS V14.01,2013-02-13 17:38:00,
2013-02-13 12:39:00,30.0,28.2,29.85,NW,325,3.0,4.0,93,0.00,,,0.00,VWS V14.01,2013-02-13 17:39:00,
2013-02-13 12:40:00,30.0,28.2,29.85,NW,308,2.0,4.0,93,0.00,,,0.00,VWS V14.01,2013-02-13 17:40:00,
2013-02-13 12:41:00,30.0,28.2,29.85,NW,308,3.0,3.0,93,0.00,,,0.00,VWS V14.01,2013-02-13 17:41:00,
2013-02-13 12:42:00,30.0,28.5,29.85,NW,307,0.0,3.0,94,0.00,,,0.00,VWS V14.01,2013-02-13 17:42:00,
2013-02-13 12:43:00,30.0,28.5,29.84,WNW,282,1.0,1.0,94,0.00,,,0.00,VWS V14.01,2013-02-13 17:43:00,
2013-02-13 12:44:00,30.0,28.5,29.84,NW,309,3.0,5.0,94,0.00,,,0.00,VWS V14.01,2013-02-13 17:44:00,
2013-02-13 12:45:00,30.0,28.5,29.84,NW,319,2.0,5.0,94,0.00,,,0.00,VWS V14.01,2013-02-13 17:45:00,
2013-02-13 12:46:00,30.0,28.5,29.84,NW,316,2.0,4.0,94,0.00,,,0.00,VWS V14.01,2013-02-13 17:46:00,
2013-02-13 12:47:00,30.0,28.5,29.84,WNW,296,2.0,3.0,94,0.00,,,0.00,VWS V14.01,2013-02-13 17:47:00,
2013-02-13 12:48:00,30.0,28.5,29.84,NW,322,2.0,3.0,94,0.00,,,0.00,VWS V14.01,2013-02-13 17:48:00,
2013-02-13 12:49:00,30.0,28.5,29.84,NW,307,3.0,4.0,94,0.00,,,0.00,VWS V14.01,2013-02-13 17:49:00,
2013-02-13 12:50:00,30.0,28.5,29.84,NW,304,1.0,4.0,94,0.00,,,0.00,VWS V14.01,2013-02-13 17:50:00,
2013-02-13 12:51:00,30.0,28.5,29.84,NNW,333,2.0,2.0,94,0.00,,,0.00,VWS V14.01,2013-02-13 17:51:00,
2013-02-13 12:52:00,30.0,28.5,29.84,NW,314,5.0,5.0,94,0.00,,,0.00,VWS V14.01,2013-02-13 17:52:00,
2013-02-13 12:53:00,30.0,28.5,29.84,NW,314,4.0,6.0,94,0.00,,,0.00,VWS V14.01,2013-02-13 17:53:00,
2013-02-13 12:54:00,29.9,28.4,29.84,WNW,291,3.0,5.0,94,0.00,,,0.00,VWS V14.01,2013-02-13 17:54:00,
2013-02-13 12:55:00,29.9,28.4,29.84,WNW,300,5.0,5.0,94,0.00,,,0.00,VWS V14.01,2013-02-13 17:55:00,
2013-02-13 12:56:00,29.9,28.4,29.84,WNW,297,2.0,5.0,94,0.00,,,0.00,VWS V14.01,2013-02-13 17:56:00,
2013-02-13 12:57:00,29.9,28.4,29.84,WNW,302,4.0,4.0,94,0.00,,,0.00,VWS V14.01,2013-02-13 17:57:00,
2013-02-13 12:58:00,29.9,28.4,29.83,NW,311,3.0,5.0,94,0.00,,,0.00,VWS V14.01,2013-02-13 17:58:00,
2013-02-13 12:59:00,29.9,28.4,29.83,NW,311,2.0,4.0,94,0.00,,,0.00,VWS V14.01,2013-02-13 17:59:00,
2013-02-13 13:00:00,29.9,28.4,29.83,NNW,333,4.0,6.0,94,0.00,,,0.00,VWS V14.01,2013-02-13 18:00:00,
2013-02-13 13:02:00,29.9,28.4,29.83,NW,314,1.0,3.0,94,0.00,,,0.00,VWS V14.01,2013-02-13 18:02:00,
2013-02-13 13:03:00,29.9,28.4,29.83,NW,319,2.0,4.0,94,0.00,,,0.00,VWS V14.01,2013-02-13 18:03:00,
2013-02-13 13:04:00,29.9,28.4,29.83,NW,326,2.0,3.0,94,0.00,,,0.00,VWS V14.01,2013-02-13 18:04:00,
2013-02-13 13:05:00,29.9,28.4,29.83,NW,326,1.0,3.0,94,0.00,,,0.00,VWS V14.01,2013-02-13 18:05:00,
2013-02-13 13:06:00,29.9,28.6,29.83,NW,309,2.0,3.0,95,0.00,,,0.00,VWS V14.01,2013-02-13 18:06:00,
2013-02-13 13:07:00,29.9,28.6,29.83,NNW,333,2.0,3.0,95,0.00,,,0.00,VWS V14.01,2013-02-13 18:07:00,
2013-02-13 13:08:00,29.9,28.6,29.83,NW,319,2.0,2.0,95,0.00,,,0.00,VWS V14.01,2013-02-13 18:08:00,
2013-02-13 13:09:00,29.9,28.6,29.83,NW,307,1.0,2.0,95,0.00,,,0.00,VWS V14.01,2013-02-13 18:09:00,
2013-02-13 13:10:00,29.9,28.6,29.83,North,8,1.0,2.0,95,0.00,,,0.00,VWS V14.01,2013-02-13 18:10:00,
2013-02-13 13:11:00,30.0,28.7,29.83,NW,326,2.0,3.0,95,0.00,,,0.00,VWS V14.01,2013-02-13 18:11:00,
2013-02-13 13:12:00,30.0,28.7,29.83,NW,312,1.0,3.0,95,0.00,,,0.00,VWS V14.01,2013-02-13 18:12:00,
2013-02-13 13:13:00,30.0,28.7,29.83,NW,319,1.0,1.0,95,0.00,,,0.00,VWS V14.01,2013-02-13 18:13:00,
2013-02-13 13:14:00,30.0,28.7,29.83,NW,311,0.0,1.0,95,0.00,,,0.00,VWS V14.01,2013-02-13 18:14:00,
2013-02-13 13:15:00,30.0,28.7,29.83,WNW,294,1.0,2.0,95,0.00,,,0.00,VWS V14.01,2013-02-13 18:15:00,
2013-02-13 13:16:00,30.0,28.7,29.83,WNW,288,2.0,2.0,95,0.00,,,0.00,VWS V14.01,2013-02-13 18:16:00,
2013-02-13 13:17:00,30.0,28.7,29.83,NW,326,2.0,2.0,95,0.00,,,0.00,VWS V14.01,2013-02-13 18:17:00,
2013-02-13 13:18:00,30.0,28.7,29.83,WNW,291,2.0,3.0,95,0.00,,,0.00,VWS V14.01,2013-02-13 18:18:00,
2013-02-13 13:19:00,30.0,28.7,29.83,NW,312,2.0,3.0,95,0.00,,,0.00,VWS V14.01,2013-02-13 18:19:00,
2013-02-13 13:20:00,30.0,28.7,29.83,WNW,301,3.0,3.0,95,0.00,,,0.00,VWS V14.01,2013-02-13 18:20:00,
2013-02-13 13:21:00,30.0,28.7,29.83,WNW,302,1.0,3.0,95,0.00,,,0.00,VWS V14.01,2013-02-13 18:21:00,
2013-02-13 13:22:00,30.0,28.7,29.83,NW,316,1.0,2.0,95,0.00,,,0.00,VWS V14.01,2013-02-13 18:22:00,
2013-02-13 13:23:00,30.0,28.7,29.83,WNW,302,3.0,3.0,95,0.00,,,0.00,VWS V14.01,2013-02-13 18:23:00,
2013-02-13 13:24:00,30.0,28.7,29.83,WNW,302,3.0,4.0,95,0.00,,,0.00,VWS V14.01,2013-02-13 18:24:00,
2013-02-13 13:25:00,30.0,28.7,29.83,NW,304,2.0,4.0,95,0.00,,,0.00,VWS V14.01,2013-02-13 18:25:00,
2013-02-13 13:26:00,30.0,28.7,29.83,WNW,293,2.0,2.0,95,0.00,,,0.00,VWS V14.01,2013-02-13 18:26:00,
2013-02-13 13:27:00,30.0,28.7,29.83,NW,320,0.0,2.0,95,0.00,,,0.00,VWS V14.01,2013-02-13 18:27:00,
2013-02-13 13:28:00,30.0,28.7,29.82,NW,308,0.0,1.0,95,0.00,,,0.00,VWS V14.01,2013-02-13 18:28:00,
2013-02-13 13:29:00,30.0,28.7,29.82,WNW,302,0.0,1.0,95,0.00,,,0.00,VWS V14.01,2013-02-13 18:29:00,
2013-02-13 13:30:00,30.0,28.7,29.82,WNW,285,1.0,1.0,95,0.00,,,0.00,VWS V14.01,2013-02-13 18:30:00,
2013-02-13 13:31:00,30.0,28.7,29.82,WSW,256,1.0,1.0,95,0.00,,,0.00,VWS V14.01,2013-02-13 18:31:00,
2013-02-13 13:32:00,30.0,28.7,29.82,West,275,0.0,1.0,95,0.00,,,0.00,VWS V14.01,2013-02-13 18:32:00,
2013-02-13 13:33:00,30.0,28.7,29.82,West,276,0.0,1.0,95,0.00,,,0.00,VWS V14.01,2013-02-13 18:33:00,
2013-02-13 13:34:00,30.0,28.7,29.82,West,275,0.0,0.0,95,0.00,,,0.00,VWS V14.01,2013-02-13 18:34:00,
2013-02-13 13:35:00,30.0,28.7,29.82,NW,320,1.0,1.0,95,0.00,,,0.00,VWS V14.01,2013-02-13 18:35:00,
2013-02-13 13:36:00,30.1,28.8,29.82,WNW,301,1.0,2.0,95,0.00,,,0.00,VWS V14.01,2013-02-13 18:36:00,
2013-02-13 13:37:00,30.1,28.8,29.82,NW,306,3.0,3.0,95,0.00,,,0.00,VWS V14.01,2013-02-13 18:37:00,
2013-02-13 13:38:00,30.1,28.8,29.82,NW,315,2.0,3.0,95,0.00,,,0.00,VWS V14.01,2013-02-13 18:38:00,
2013-02-13 13:39:00,30.1,28.8,29.83,NW,304,2.0,3.0,95,0.00,,,0.00,VWS V14.01,2013-02-13 18:39:00,
2013-02-13 13:40:00,30.1,28.8,29.83,WNW,289,2.0,3.0,95,0.00,,,0.00,VWS V14.01,2013-02-13 18:40:00,
2013-02-13 13:41:00,30.1,28.8,29.83,NW,309,1.0,3.0,95,0.00,,,0.00,VWS V14.01,2013-02-13 18:41:00,
2013-02-13 13:42:00,30.1,28.8,29.83,NW,321,0.0,3.0,95,0.00,,,0.00,VWS V14.01,2013-02-13 18:42:00,
2013-02-13 13:43:00,30.2,28.9,29.83,WNW,298,3.0,3.0,95,0.00,,,0.00,VWS V14.01,2013-02-13 18:43:00,
2013-02-13 13:44:00,30.1,28.8,29.83,NW,320,4.0,4.0,95,0.00,,,0.00,VWS V14.01,2013-02-13 18:44:00,
2013-02-13 13:45:00,30.2,28.9,29.83,NW,308,5.0,5.0,95,0.00,,,0.00,VWS V14.01,2013-02-13 18:45:00,
2013-02-13 13:46:00,30.2,28.9,29.83,WNW,301,2.0,5.0,95,0.00,,,0.00,VWS V14.01,2013-02-13 18:46:00,
2013-02-13 13:47:00,30.2,28.9,29.83,NW,322,1.0,3.0,95,0.00,,,0.00,VWS V14.01,2013-02-13 18:47:00,
2013-02-13 13:48:00,30.2,28.9,29.82,NNW,333,3.0,3.0,95,0.00,,,0.00,VWS V14.01,2013-02-13 18:48:00,
2013-02-13 13:49:00,30.3,29.0,29.82,NW,315,2.0,3.0,95,0.00,,,0.00,VWS V14.01,2013-02-13 18:49:00,
2013-02-13 13:50:00,30.3,29.0,29.83,NW,315,4.0,4.0,95,0.00,,,0.00,VWS V14.01,2013-02-13 18:50:00,
2013-02-13 13:51:00,30.3,29.0,29.83,NW,315,3.0,4.0,95,0.00,,,0.00,VWS V14.01,2013-02-13 18:51:00,
2013-02-13 13:52:00,30.4,29.1,29.82,NNW,338,3.0,5.0,95,0.00,,,0.00,VWS V14.01,2013-02-13 18:52:00,
2013-02-13 13:53:00,30.3,29.0,29.82,NW,315,2.0,4.0,95,0.00,,,0.00,VWS V14.01,2013-02-13 18:53:00,
2013-02-13 13:54:00,30.3,29.0,29.82,NW,315,3.0,4.0,95,0.00,,,0.00,VWS V14.01,2013-02-13 18:54:00,
2013-02-13 13:55:00,30.4,29.1,29.82,NW,315,2.0,4.0,95,0.00,,,0.00,VWS V14.01,2013-02-13 18:55:00,
2013-02-13 13:56:00,30.4,29.1,29.82,NW,315,2.0,3.0,95,0.00,,,0.00,VWS V14.01,2013-02-13 18:56:00,
2013-02-13 13:57:00,30.4,29.1,29.82,WNW,292,2.0,3.0,95,0.00,,,0.00,VWS V14.01,2013-02-13 18:57:00,
2013-02-13 13:58:00,30.4,29.1,29.82,WNW,292,2.0,3.0,95,0.00,,,0.00,VWS V14.01,2013-02-13 18:58:00,
2013-02-13 13:59:00,30.4,29.1,29.82,WNW,292,2.0,3.0,95,0.00,,,0.00,VWS V14.01,2013-02-13 18:59:00,
2013-02-13 14:00:00,30.4,29.1,29.82,WNW,292,1.0,1.0,95,0.00,,,0.00,VWS V14.01,2013-02-13 19:00:00,
2013-02-13 14:01:00,30.4,29.1,29.82,NW,315,0.0,1.0,95,0.00,,,0.00,VWS V14.01,2013-02-13 19:01:00,
2013-02-13 14:02:00,30.5,29.2,29.82,NW,315,2.0,3.0,95,0.00,,,0.00,VWS V14.01,2013-02-13 19:02:00,
2013-02-13 14:03:00,30.5,29.2,29.82,WNW,292,1.0,2.0,95,0.00,,,0.00,VWS V14.01,2013-02-13 19:03:00,
2013-02-13 14:04:00,30.5,29.2,29.82,NW,315,0.0,2.0,95,0.00,,,0.00,VWS V14.01,2013-02-13 19:04:00,
2013-02-13 14:14:00,30.8,29.5,29.82,WNW,292,2.0,3.0,95,0.00,,,0.00,VWS V14.01,2013-02-13 19:14:00,
2013-02-13 14:19:00,30.8,29.3,29.82,WNW,295,1.0,2.0,94,0.00,,,0.00,VWS V14.01,2013-02-13 19:19:00,
2013-02-13 14:24:00,30.9,29.4,29.82,WNW,296,3.0,3.0,94,0.00,,,0.00,VWS V14.01,2013-02-13 19:24:00,
2013-02-13 14:29:00,31.0,29.7,29.82,West,259,2.0,2.0,95,0.00,,,0.00,VWS V14.01,2013-02-13 19:29:00,
2013-02-13 14:34:00,31.1,29.8,29.82,NW,319,1.0,2.0,95,0.00,,,0.00,VWS V14.01,2013-02-13 19:34:00,
2013-02-13 14:39:00,31.2,29.7,29.82,WSW,255,1.0,2.0,94,0.00,,,0.00,VWS V14.01,2013-02-13 19:39:00,
2013-02-13 14:44:00,31.4,29.9,29.82,NW,311,1.0,4.0,94,0.00,,,0.00,VWS V14.01,2013-02-13 19:44:00,
2013-02-13 14:49:00,31.4,29.9,29.82,WNW,289,3.0,4.0,94,0.00,,,0.00,VWS V14.01,2013-02-13 19:49:00,
2013-02-13 14:54:00,31.3,29.8,29.82,WNW,285,3.0,5.0,94,0.00,,,0.00,VWS V14.01,2013-02-13 19:54:00,
2013-02-13 14:59:00,31.2,29.7,29.83,NNW,330,2.0,3.0,94,0.00,,,0.00,VWS V14.01,2013-02-13 19:59:00,
2013-02-13 15:04:00,31.3,29.8,29.83,WSW,256,2.0,3.0,94,0.00,,,0.00,VWS V14.01,2013-02-13 20:04:00,
2013-02-13 15:09:00,31.3,29.8,29.82,West,273,1.0,2.0,94,0.00,,,0.00,VWS V14.01,2013-02-13 20:09:00,
2013-02-13 15:14:00,31.4,29.9,29.83,West,266,1.0,3.0,94,0.00,,,0.00,VWS V14.01,2013-02-13 20:14:00,
2013-02-13 15:19:00,31.4,29.9,29.83,WNW,290,3.0,3.0,94,0.00,,,0.00,VWS V14.01,2013-02-13 20:19:00,
2013-02-13 15:24:00,31.4,29.6,29.83,West,280,3.0,4.0,93,0.00,,,0.00,VWS V14.01,2013-02-13 20:24:00,
2013-02-13 15:29:00,31.5,29.7,29.83,West,260,2.0,4.0,93,0.00,,,0.00,VWS V14.01,2013-02-13 20:29:00,
2013-02-13 15:34:00,31.6,29.5,29.84,West,264,1.0,3.0,92,0.00,,,0.00,VWS V14.01,2013-02-13 20:34:00,
2013-02-13 15:39:00,31.8,30.0,29.84,SW,233,0.0,2.0,93,0.00,,,0.00,VWS V14.01,2013-02-13 20:39:00,
2013-02-13 15:44:00,31.9,29.8,29.84,West,268,1.0,3.0,92,0.00,,,0.00,VWS V14.01,2013-02-13 20:44:00,
2013-02-13 15:49:00,32.1,30.0,29.84,WSW,244,0.0,3.0,92,0.00,,,0.00,VWS V14.01,2013-02-13 20:49:00,
2013-02-13 15:54:00,32.0,29.4,29.84,NW,304,1.0,5.0,90,0.00,,,0.00,VWS V14.01,2013-02-13 20:54:00,
2013-02-13 15:59:00,31.9,29.3,29.84,NW,305,1.0,3.0,90,0.00,,,0.00,VWS V14.01,2013-02-13 20:59:00,
2013-02-13 16:04:00,32.0,29.4,29.84,NW,309,1.0,1.0,90,0.00,,,0.00,VWS V14.01,2013-02-13 21:04:00,
2013-02-13 16:09:00,32.0,29.4,29.84,NW,304,3.0,4.0,90,0.00,,,0.00,VWS V14.01,2013-02-13 21:09:00,
2013-02-13 16:14:00,32.0,29.1,29.85,NW,312,4.0,4.0,89,0.00,,,0.00,VWS V14.01,2013-02-13 21:14:00,
2013-02-13 16:19:00,31.9,29.0,29.85,NW,308,4.0,5.0,89,0.00,,,0.00,VWS V14.01,2013-02-13 21:19:00,
2013-02-13 16:24:00,31.9,28.8,29.85,WNW,299,3.0,7.0,88,0.00,,,0.00,VWS V14.01,2013-02-13 21:24:00,
2013-02-13 16:29:00,32.0,28.9,29.85,NW,306,3.0,6.0,88,0.00,,,0.00,VWS V14.01,2013-02-13 21:29:00,
2013-02-13 16:34:00,32.0,28.9,29.85,WNW,295,4.0,7.0,88,0.00,,,0.00,VWS V14.01,2013-02-13 21:34:00,
2013-02-13 16:39:00,32.0,28.9,29.85,WNW,299,4.0,6.0,88,0.00,,,0.00,VWS V14.01,2013-02-13 21:39:00,
2013-02-13 16:44:00,32.0,28.9,29.85,NW,309,4.0,4.0,88,0.00,,,0.00,VWS V14.01,2013-02-13 21:44:00,
2013-02-13 16:49:00,32.0,28.6,29.85,WNW,301,4.0,4.0,87,0.00,,,0.00,VWS V14.01,2013-02-13 21:49:00,
2013-02-13 16:54:00,32.0,28.6,29.85,WNW,302,5.0,5.0,87,0.00,,,0.00,VWS V14.01,2013-02-13 21:54:00,
2013-02-13 16:59:00,32.0,28.6,29.85,West,274,1.0,2.0,87,0.00,,,0.00,VWS V14.01,2013-02-13 21:59:00,
2013-02-13 17:04:00,32.0,28.6,29.85,West,280,1.0,2.0,87,0.00,,,0.00,VWS V14.01,2013-02-13 22:04:00,
2013-02-13 17:09:00,31.9,28.2,29.85,WNW,293,2.0,3.0,86,0.00,,,0.00,VWS V14.01,2013-02-13 22:09:00,
2013-02-13 17:14:00,31.8,28.1,29.85,West,274,0.0,2.0,86,0.00,,,0.00,VWS V14.01,2013-02-13 22:14:00,
2013-02-13 17:19:00,31.8,28.1,29.85,WNW,301,1.0,3.0,86,0.00,,,0.00,VWS V14.01,2013-02-13 22:19:00,
2013-02-13 17:24:00,31.8,28.1,29.85,NW,319,1.0,2.0,86,0.00,,,0.00,VWS V14.01,2013-02-13 22:24:00,
2013-02-13 17:29:00,31.8,28.1,29.85,WNW,284,1.0,1.0,86,0.00,,,0.00,VWS V14.01,2013-02-13 22:29:00,
2013-02-13 17:34:00,32.0,28.3,29.85,West,262,1.0,2.0,86,0.00,,,0.00,VWS V14.01,2013-02-13 22:34:00,
2013-02-13 17:39:00,32.3,28.6,29.85,WSW,242,0.0,0.0,86,0.00,,,0.00,VWS V14.01,2013-02-13 22:39:00,
2013-02-13 17:44:00,32.5,28.5,29.85,WSW,253,1.0,2.0,85,0.00,,,0.00,VWS V14.01,2013-02-13 22:44:00,
2013-02-13 17:49:00,32.5,28.5,29.86,SW,217,1.0,1.0,85,0.00,,,0.00,VWS V14.01,2013-02-13 22:49:00,
2013-02-13 17:54:00,32.3,28.3,29.86,West,262,0.0,3.0,85,0.00,,,0.00,VWS V14.01,2013-02-13 22:54:00,
2013-02-13 17:59:00,31.9,27.9,29.87,West,267,2.0,4.0,85,0.00,,,0.00,VWS V14.01,2013-02-13 22:59:00,
2013-02-13 18:04:00,31.6,27.6,29.87,West,259,1.0,3.0,85,0.00,,,0.00,VWS V14.01,2013-02-13 23:04:00,
2013-02-13 18:09:00,31.3,27.6,29.87,West,263,2.0,4.0,86,0.00,,,0.00,VWS V14.01,2013-02-13 23:09:00,
2013-02-13 18:14:00,30.9,26.9,29.88,SW,228,3.0,5.0,85,0.00,,,0.00,VWS V14.01,2013-02-13 23:14:00,
2013-02-13 18:19:00,30.6,26.9,29.88,West,264,2.0,3.0,86,0.00,,,0.00,VWS V14.01,2013-02-13 23:19:00,
2013-02-13 18:24:00,30.4,27.0,29.88,SW,228,1.0,3.0,87,0.00,,,0.00,VWS V14.01,2013-02-13 23:24:00,
2013-02-13 18:29:00,30.1,26.7,29.88,West,267,1.0,2.0,87,0.00,,,0.00,VWS V14.01,2013-02-13 23:29:00,
2013-02-13 18:34:00,29.9,26.5,29.88,WSW,247,0.0,1.0,87,0.00,,,0.00,VWS V14.01,2013-02-13 23:34:00,
2013-02-13 18:39:00,29.7,26.6,29.88,SW,224,1.0,1.0,88,0.00,,,0.00,VWS V14.01,2013-02-13 23:39:00,
2013-02-13 18:44:00,29.5,26.4,29.89,SW,236,0.0,2.0,88,0.00,,,0.00,VWS V14.01,2013-02-13 23:44:00,
2013-02-13 18:49:00,29.2,26.4,29.89,WSW,240,0.0,0.0,89,0.00,,,0.00,VWS V14.01,2013-02-13 23:49:00,
2013-02-13 18:54:00,29.0,26.2,29.90,WSW,255,0.0,1.0,89,0.00,,,0.00,VWS V14.01,2013-02-13 23:54:00,
2013-02-13 18:59:00,29.0,26.7,29.90,SW,236,0.0,1.0,91,0.00,,,0.00,VWS V14.01,2013-02-13 23:59:00,
2013-02-13 19:04:00,28.9,26.6,29.90,WSW,248,0.0,0.0,91,0.00,,BKN220,0.00,VWS V14.01,2013-02-14 00:04:00,
2013-02-13 19:09:00,28.7,26.4,29.91,WSW,248,1.0,1.0,91,0.00,,BKN220,0.00,VWS V14.01,2013-02-14 00:09:00,
2013-02-13 19:14:00,28.7,26.4,29.90,SW,231,3.0,4.0,91,0.00,,BKN220,0.00,VWS V14.01,2013-02-14 00:14:00,
2013-02-13 19:19:00,28.7,26.1,29.91,WSW,239,4.0,4.0,90,0.00,,BKN220,0.00,VWS V14.01,2013-02-14 00:19:00,
2013-02-13 19:24:00,28.6,26.0,29.91,SW,233,1.0,4.0,90,0.00,,BKN220,0.00,VWS V14.01,2013-02-14 00:24:00,
2013-02-13 19:29:00,28.5,26.0,29.91,SW,228,1.0,2.0,90,0.00,,BKN220,0.00,VWS V14.01,2013-02-14 00:29:00,
2013-02-13 19:34:00,28.4,25.9,29.92,SW,226,3.0,3.0,90,0.00,,BKN220,0.00,VWS V14.01,2013-02-14 00:34:00,
2013-02-13 19:39:00,28.2,25.9,29.92,WSW,238,2.0,2.0,91,0.00,,BKN220,0.00,VWS V14.01,2013-02-14 00:39:00,
2013-02-13 19:44:00,28.1,25.8,29.92,WSW,255,1.0,2.0,91,0.00,,BKN220,0.00,VWS V14.01,2013-02-14 00:44:00,
2013-02-13 19:49:00,27.9,25.6,29.93,SW,226,2.0,2.0,91,0.00,,BKN220,0.00,VWS V14.01,2013-02-14 00:49:00,
2013-02-13 19:54:00,27.7,25.7,29.93,SW,226,2.0,4.0,92,0.00,,BKN220,0.00,VWS V14.01,2013-02-14 00:54:00,
2013-02-13 19:59:00,27.7,25.7,29.93,WSW,246,3.0,5.0,92,0.00,,BKN220,0.00,VWS V14.01,2013-02-14 00:59:00,
2013-02-13 20:04:00,27.6,25.6,29.93,SW,222,3.0,4.0,92,0.00,,SCT220,0.00,VWS V14.01,2013-02-14 01:04:00,
2013-02-13 20:09:00,27.4,25.4,29.93,SW,225,2.0,4.0,92,0.00,,SCT220,0.00,VWS V14.01,2013-02-14 01:09:00,
2013-02-13 20:14:00,27.3,25.3,29.93,SW,217,5.0,5.0,92,0.00,,SCT220,0.00,VWS V14.01,2013-02-14 01:14:00,
2013-02-13 20:19:00,27.3,25.5,29.94,SW,220,2.0,4.0,93,0.00,,SCT220,0.00,VWS V14.01,2013-02-14 01:19:00,
2013-02-13 20:24:00,27.4,25.9,29.94,SW,224,1.0,2.0,94,0.00,,SCT220,0.00,VWS V14.01,2013-02-14 01:24:00,
2013-02-13 20:29:00,27.1,25.4,29.93,SSW,205,1.0,3.0,93,0.00,,SCT220,0.00,VWS V14.01,2013-02-14 01:29:00,
2013-02-13 20:34:00,26.8,25.0,29.93,WSW,245,1.0,3.0,93,0.00,,SCT220,0.00,VWS V14.01,2013-02-14 01:34:00,
2013-02-13 20:39:00,26.7,25.0,29.94,WSW,240,0.0,3.0,93,0.00,,SCT220,0.00,VWS V14.01,2013-02-14 01:39:00,
2013-02-13 20:44:00,26.6,24.9,29.94,SW,231,3.0,4.0,93,0.00,,SCT220,0.00,VWS V14.01,2013-02-14 01:44:00,
2013-02-13 20:49:00,26.6,24.9,29.94,SW,224,2.0,3.0,93,0.00,,SCT220,0.00,VWS V14.01,2013-02-14 01:49:00,
2013-02-13 20:54:00,26.5,24.8,29.94,SW,224,4.0,6.0,93,0.00,,SCT220,0.00,VWS V14.01,2013-02-14 01:54:00,
2013-02-13 20:59:00,26.5,24.8,29.94,SW,232,2.0,3.0,93,0.00,,SCT220,0.00,VWS V14.01,2013-02-14 01:59:00,
2013-02-13 21:04:00,26.4,24.6,29.94,SW,224,3.0,4.0,93,0.00,,FEW220,0.00,VWS V14.01,2013-02-14 02:04:00,
2013-02-13 21:09:00,26.3,24.6,29.94,WSW,243,3.0,3.0,93,0.00,,FEW220,0.00,VWS V14.01,2013-02-14 02:09:00,
2013-02-13 21:14:00,26.3,24.6,29.94,SW,218,3.0,4.0,93,0.00,,FEW220,0.00,VWS V14.01,2013-02-14 02:14:00,
2013-02-13 21:19:00,26.5,25.0,29.94,SSW,213,1.0,4.0,94,0.00,,FEW220,0.00,VWS V14.01,2013-02-14 02:19:00,
2013-02-13 21:24:00,26.5,25.0,29.95,SW,233,5.0,6.0,94,0.00,,FEW220,0.00,VWS V14.01,2013-02-14 02:24:00,
2013-02-13 21:29:00,26.4,24.6,29.95,SSW,201,0.0,5.0,93,0.00,,FEW220,0.00,VWS V14.01,2013-02-14 02:29:00,
2013-02-13 21:34:00,26.2,24.5,29.95,WSW,238,2.0,4.0,93,0.00,,FEW220,0.00,VWS V14.01,2013-02-14 02:34:00,
2013-02-13 21:39:00,26.1,24.4,29.95,SSW,205,2.0,5.0,93,0.00,,FEW220,0.00,VWS V14.01,2013-02-14 02:39:00,
2013-02-13 21:44:00,26.1,24.6,29.95,South,179,4.0,5.0,94,0.00,,FEW220,0.00,VWS V14.01,2013-02-14 02:44:00,
2013-02-13 21:49:00,25.9,24.2,29.95,SW,232,2.0,6.0,93,0.00,,FEW220,0.00,VWS V14.01,2013-02-14 02:49:00,
2013-02-13 21:54:00,25.8,24.3,29.96,SW,224,2.0,4.0,94,0.00,,FEW220,0.00,VWS V14.01,2013-02-14 02:54:00,
2013-02-13 21:59:00,25.8,24.3,29.96,SW,222,3.0,6.0,94,0.00,,FEW220,0.00,VWS V14.01,2013-02-14 02:59:00,
2013-02-13 22:03:00,25.7,24.2,29.96,SW,224,2.0,5.0,94,0.00,,,0.00,VWS V14.01,2013-02-14 03:03:00,
2013-02-13 22:08:00,25.6,24.1,29.96,SW,226,3.0,4.0,94,0.00,,,0.00,VWS V14.01,2013-02-14 03:08:00,
2013-02-13 22:13:00,25.6,24.1,29.96,SW,221,3.0,7.0,94,0.00,,,0.00,VWS V14.01,2013-02-14 03:13:00,
2013-02-13 22:18:00,25.5,24.0,29.96,SSW,210,4.0,6.0,94,0.00,,,0.00,VWS V14.01,2013-02-14 03:18:00,
2013-02-13 22:23:00,25.5,24.0,29.96,SW,232,2.0,5.0,94,0.00,,,0.00,VWS V14.01,2013-02-14 03:23:00,
2013-02-13 22:28:00,25.6,24.1,29.96,SW,214,2.0,3.0,94,0.00,,,0.00,VWS V14.01,2013-02-14 03:28:00,
2013-02-13 22:33:00,25.6,24.1,29.96,WSW,245,2.0,5.0,94,0.00,,,0.00,VWS V14.01,2013-02-14 03:33:00,
2013-02-13 22:39:00,25.6,24.1,29.96,SSW,208,4.0,4.0,94,0.00,,,0.00,VWS V14.01,2013-02-14 03:39:00,
2013-02-13 22:44:00,25.5,24.0,29.96,SW,229,4.0,5.0,94,0.00,,,0.00,VWS V14.01,2013-02-14 03:44:00,
2013-02-13 22:49:00,25.4,23.9,29.97,SW,235,4.0,4.0,94,0.00,,,0.00,VWS V14.01,2013-02-14 03:49:00,
2013-02-13 22:54:00,25.4,23.9,29.97,SSW,211,5.0,5.0,94,0.00,,,0.00,VWS V14.01,2013-02-14 03:54:00,
2013-02-13 22:59:00,25.5,24.3,29.97,SW,224,3.0,5.0,95,0.00,,,0.00,VWS V14.01,2013-02-14 03:59:00,
2013-02-13 23:04:00,25.5,24.0,29.97,SW,235,3.0,3.0,94,0.00,,,0.00,VWS V14.01,2013-02-14 04:04:00,
2013-02-13 23:09:00,25.5,24.0,29.97,WSW,242,2.0,2.0,94,0.00,,,0.00,VWS V14.01,2013-02-14 04:09:00,
2013-02-13 23:14:00,25.5,24.0,29.97,SW,221,0.0,2.0,94,0.00,,,0.00,VWS V14.01,2013-02-14 04:14:00,
2013-02-13 23:19:00,25.5,24.0,29.97,SW,214,1.0,2.0,94,0.00,,,0.00,VWS V14.01,2013-02-14 04:19:00,
2013-02-13 23:23:00,25.4,23.9,29.97,SSE,165,1.0,4.0,94,0.00,,,0.00,VWS V14.01,2013-02-14 04:23:00,
2013-02-13 23:28:00,25.4,23.9,29.97,SSW,203,0.0,1.0,94,0.00,,,0.00,VWS V14.01,2013-02-14 04:28:00,
2013-02-13 23:33:00,25.4,23.9,29.97,SW,215,0.0,0.0,94,0.00,,,0.00,VWS V14.01,2013-02-14 04:33:00,
2013-02-13 23:38:00,25.2,23.7,29.97,SE,135,0.0,0.0,94,0.00,,,0.00,VWS V14.01,2013-02-14 04:38:00,
2013-02-13 23:43:00,25.2,24.0,29.97,South,175,0.0,0.0,95,0.00,,,0.00,VWS V14.01,2013-02-14 04:43:00,
2013-02-13 23:48:00,25.1,23.9,29.97,South,180,0.0,1.0,95,0.00,,,0.00,VWS V14.01,2013-02-14 04:48:00,
2013-02-13 23:53:00,25.3,24.1,29.97,SSW,193,1.0,1.0,95,0.00,,,0.00,VWS V14.01,2013-02-14 04:53:00,
2013-02-13 23:58:00,25.4,24.2,29.97,WSW,245,4.0,7.0,95,0.00,,,0.00,VWS V14.01,2013-02-14 04:58:00,